Weather observations for the past three days for
Fond Du Lac County Airport
| Date | Time (cdt) | Wind (kph) | Vis. (km) | Weather | Sky Cond. | Temperature (ºC) | Relative Humidity | Wind Chill (°C) | Heat Index (°C) | Pressure | Precipitation (cm) | ||||||
|---|---|---|---|---|---|---|---|---|---|---|---|---|---|---|---|---|---|
| Air | Dwpt | 6 hour | altimeter (cm) | sea level (mb) | 1 hr | 3 hr | 6 hr | ||||||||||
| Max. | Min. | ||||||||||||||||
| 06 | 06:53 | S 6 | 16.09 | Fair | CLR | 2.2 | 0 | 4.4 | 0 | 86% | 75.9 | 1012.4 | |||||
| 06 | 05:53 | Calm | 16.09 | Fair | CLR | 2.8 | -2.2 | 70% | 75.87 | 1012.0 | |||||||
| 06 | 04:53 | SW 7 | 16.09 | Partly Cloudy | SCT070 | 3.9 | -2.2 | 65% | 2 | 75.84 | 1011.6 | ||||||
| 06 | 03:53 | W 9 | 16.09 | Overcast | OVC070 | 4.4 | -2.2 | 63% | 2 | 75.84 | 1011.8 | ||||||
| 06 | 02:53 | W 6 | 16.09 | Overcast | OVC075 | 2.2 | -1.7 | 76% | 75.82 | 1011.4 | |||||||
| 06 | 01:53 | SW 6 | 16.09 | A Few Clouds | FEW080 | 0 | -1.7 | 88% | 75.82 | 1011.4 | |||||||
| 06 | 00:53 | Calm | 16.09 | Fair | CLR | 1.1 | -1.7 | 10.6 | 0.6 | 82% | 75.84 | 1011.5 | |||||
| 05 | 23:53 | W 6 | 16.09 | Fair | CLR | 1.7 | -2.8 | 72% | 75.84 | 1011.6 | |||||||
| 05 | 22:53 | NW 6 | 16.09 | Fair | CLR | 5 | -4.4 | 51% | 75.82 | 1011.3 | |||||||
| 05 | 21:53 | NW 7 | 16.09 | Fair | CLR | 6.1 | -4.4 | 47% | 5 | 75.82 | 1011.3 | ||||||
| 05 | 20:53 | NW 17 | 16.09 | Fair | CLR | 7.8 | -5 | 40% | 5 | 75.77 | 1010.7 | ||||||
| 05 | 19:53 | NW 19 | 16.09 | Fair | CLR | 8.9 | -5.6 | 36% | 6 | 75.72 | 1009.8 | ||||||
| 05 | 18:53 | NW 26 | 16.09 | A Few Clouds | FEW080 | 10.6 | -5 | 13.3 | 10.6 | 33% | 75.69 | 1009.4 | |||||
| 05 | 17:53 | NW 28 G 54 | 16.09 | Partly Cloudy | SCT080 | 12.2 | -5 | 30% | 75.64 | 1008.7 | |||||||
| 05 | 16:53 | W 22 G 37 | 16.09 | Fair | CLR | 12.8 | -6.1 | 26% | 75.62 | 1008.4 | |||||||
| 05 | 15:53 | W 19 G 52 | 16.09 | Fair | CLR | 12.2 | -6.1 | 28% | 75.62 | 1008.5 | |||||||
| 05 | 14:53 | W 30 G 48 | 16.09 | Fair | CLR | 12.8 | -5 | 29% | 75.62 | 1008.4 | |||||||
| 05 | 13:53 | W 19 G 46 | 16.09 | Fair | CLR | 12.2 | -5.6 | 29% | 75.62 | 1008.2 | |||||||
| 05 | 12:53 | W 30 G 48 | 16.09 | Fair | CLR | 11.7 | -5 | 12.2 | 5.6 | 31% | 75.62 | 1008.2 | |||||
| 05 | 11:53 | W 26 G 48 | 16.09 | Partly Cloudy | SCT065 | 11.1 | -5.6 | 31% | 75.59 | 1007.9 | |||||||
| 05 | 10:53 | W 28 G 43 | 16.09 | Partly Cloudy | SCT060 | 10.6 | -3.9 | 36% | 75.57 | 1007.6 | |||||||
| 05 | 09:53 | W 22 G 37 | 16.09 | A Few Clouds | FEW050 | 9.4 | -2.2 | 44% | 7 | 75.57 | 1007.8 | ||||||
| 05 | 08:53 | W 17 | 16.09 | Fair | CLR | 8.9 | -1.7 | 48% | 7 | 75.59 | 1007.9 | ||||||
| 05 | 07:53 | W 20 | 16.09 | Fair | CLR | 7.8 | -2.2 | 50% | 5 | 75.59 | 1008.0 | ||||||
| 05 | 06:53 | SW 9 | 16.09 | Fair | CLR | 5.6 | -1.7 | 9.4 | 3.9 | 60% | 4 | 75.51 | 1006.7 | ||||
| 05 | 05:53 | SW 7 | 16.09 | Fair | CLR | 4.4 | -3.3 | 58% | 3 | 75.46 | 1006.3 | ||||||
| 05 | 04:53 | SW 7 | 16.09 | Fair | CLR | 5 | -3.9 | 53% | 4 | 75.44 | 1005.8 | ||||||
| 05 | 03:53 | W 9 | 16.09 | Fair | CLR | 5.6 | -3.9 | 51% | 4 | 75.39 | 1005.1 | ||||||
| 05 | 02:53 | NW 24 G 35 | 16.09 | Fair | CLR | 7.2 | -3.9 | 46% | 4 | 75.31 | 1004.1 | ||||||
| 05 | 01:53 | NW 20 | 16.09 | Fair | CLR | 8.3 | -3.3 | 44% | 5 | 75.29 | 1003.8 | ||||||
| 05 | 00:53 | NW 28 | 16.09 | Fair | CLR | 9.4 | -2.2 | 18.9 | 9.4 | 44% | 6 | 75.29 | 1003.5 | ||||
| 04 | 23:53 | NW 22 | 16.09 | Fair | CLR | 11.1 | -1.1 | 43% | 75.16 | 1001.8 | |||||||
| 04 | 22:53 | NW 19 G 35 | 16.09 | Fair | CLR | 11.7 | -0.6 | 43% | 75.11 | 1001.1 | |||||||
| 04 | 21:53 | NW 17 | 16.09 | Fair | CLR | 13.9 | -1.1 | 36% | 74.96 | 999.2 | |||||||
| 04 | 20:53 | W 30 G 46 | 16.09 | Fair | CLR | 16.1 | -1.7 | 30% | 74.88 | 998.3 | |||||||
| 04 | 19:53 | W 20 | 16.09 | A Few Clouds | FEW120 | 16.7 | 1.7 | 37% | 74.78 | 996.9 | |||||||
| 04 | 18:53 | W 22 G 41 | 16.09 | Fair | CLR | 18.9 | 1.7 | 25 | 18.9 | 32% | 74.73 | 996.1 | |||||
| 04 | 17:53 | NW 20 G 50 | 16.09 | Partly Cloudy | SCT120 | 22.2 | 5 | 33% | 74.68 | 995.5 | |||||||
| 04 | 16:53 | W 24 G 39 | 16.09 | Light Rain | BKN095 | 23.9 | 5.6 | 31% | 25 | 74.63 | 994.7 | ||||||
| 04 | 15:53 | SW 28 G 52 | 16.09 | Mostly Cloudy | SCT100 BKN120 | 25 | 5 | 28% | 25 | 74.6 | 994.5 | ||||||
| 04 | 14:53 | SW 31 G 54 | 16.09 | Mostly Cloudy | SCT100 BKN120 | 23.9 | 5 | 29% | 25 | 74.63 | 994.8 | ||||||
| 04 | 13:53 | SW 30 G 54 | 16.09 | Mostly Cloudy | BKN100 | 23.3 | 3.9 | 28% | 74.65 | 995.0 | |||||||
| 04 | 12:53 | SW 28 G 61 | 16.09 | Fair | CLR | 24.4 | 4.4 | 24.4 | 10 | 27% | 25 | 74.65 | 995.2 | ||||
| 04 | 11:53 | SW 41 G 61 | 16.09 | Fair and Breezy | CLR | 23.3 | 3.9 | 28% | 74.73 | 996.1 | |||||||
| 04 | 10:53 | SW 28 G 54 | 16.09 | Fair | CLR | 21.7 | 3.9 | 31% | 74.78 | 996.7 | |||||||
| 04 | 09:53 | SW 35 G 50 | 16.09 | Fair and Breezy | CLR | 19.4 | 3.9 | 36% | 74.85 | 997.8 | |||||||
| 04 | 08:53 | SW 26 G 44 | 16.09 | Fair | CLR | 16.1 | 3.9 | 44% | 74.93 | 998.7 | |||||||
| 04 | 07:53 | SW 20 G 35 | 16.09 | Fair | CLR | 13.9 | 3.3 | 49% | 74.98 | 999.6 | |||||||
| 04 | 06:53 | S 15 | 16.09 | Fair | CLR | 10 | 3.3 | 11.7 | 6.7 | 63% | 8 | 75.01 | 999.9 | ||||
| 04 | 05:53 | S 13 | 16.09 | Fair | CLR | 6.7 | 2.2 | 73% | 4 | 75.01 | 1000.2 | ||||||
| 04 | 04:53 | S 9 | 16.09 | Fair | CLR | 6.7 | 2.2 | 73% | 5 | 75.06 | 1000.9 | ||||||
| 04 | 03:53 | S 11 | 16.09 | Fair | CLR | 7.2 | 2.8 | 74% | 5 | 75.11 | 1001.5 | ||||||
| 04 | 02:53 | SW 13 | 16.09 | Fair | CLR | 10 | 3.3 | 63% | 8 | 75.16 | 1002.0 | ||||||
| 04 | 01:53 | SW 9 | 16.09 | Fair | CLR | 10.6 | 2.2 | 56% | 75.18 | 1002.5 | |||||||
| 04 | 00:53 | SW 11 | 16.09 | Fair | CLR | 11.1 | 2.2 | 19.4 | 11.1 | 55% | 75.23 | 1003.1 | |||||
| 03 | 23:53 | SW 11 | 16.09 | Fair | CLR | 11.7 | 3.3 | 57% | 75.26 | 1003.4 | |||||||
| 03 | 22:53 | SW 11 | 16.09 | Fair | CLR | 13.3 | 4.4 | 55% | 75.26 | 1003.6 | |||||||
| 03 | 21:53 | SW 7 | 16.09 | Fair | CLR | 13.9 | 4.4 | 53% | 75.29 | 1003.7 | |||||||
| 03 | 20:53 | SW 9 | 16.09 | Fair | CLR | 15 | 5 | 51% | 75.23 | 1003.1 | |||||||
| 03 | 19:53 | SW 9 | 16.09 | Fair | CLR | 17.2 | 5 | 45% | 75.21 | 1002.9 | |||||||
| 03 | 18:53 | SW 17 | 16.09 | Fair | CLR | 18.9 | 5 | 20 | 17.2 | 40% | 75.21 | 1002.6 | |||||
| 03 | 17:53 | SW 24 G 35 | 16.09 | Fair | CLR | 19.4 | 4.4 | 37% | 75.21 | 1002.7 | |||||||
| 03 | 16:53 | SW 20 G 41 | 16.09 | Fair | CLR | 20 | 4.4 | 36% | 75.23 | 1003.2 | |||||||
| 03 | 15:53 | SW 30 G 46 | 16.09 | Fair | CLR | 19.4 | 4.4 | 37% | 75.26 | 1003.5 | |||||||
| 03 | 14:53 | SW 28 G 46 | 16.09 | A Few Clouds | FEW060 | 18.3 | 4.4 | 40% | 75.34 | 1004.4 | |||||||
| 03 | 13:53 | SW 30 G 56 | 16.09 | A Few Clouds | FEW100 | 17.8 | 4.4 | 41% | 75.39 | 1005.1 | |||||||
| 03 | 12:53 | SW 31 G 59 | 16.09 | Fair | CLR | 17.2 | 5 | 17.2 | 8.9 | 45% | 75.44 | 1006.0 | |||||
| 03 | 11:53 | S 24 G 50 | 16.09 | Fair | CLR | 15.6 | 6.7 | 56% | 75.54 | 1007.2 | |||||||
| 03 | 10:53 | SW 30 G 52 | 16.09 | Overcast | OVC075 | 12.8 | 5 | 59% | 75.59 | 1008.0 | |||||||
| 03 | 09:53 | SW 28 G 48 | 16.09 | Overcast | OVC090 | 13.3 | 3.9 | 53% | 75.62 | 1008.4 | |||||||
| 03 | 08:53 | SW 24 G 43 | 16.09 | A Few Clouds | FEW085 | 12.2 | 2.2 | 51% | 75.64 | 1008.8 | |||||||
| Date | Time (cdt) | Wind (kph) | Vis. (km) | Weather | Sky Cond. | Air | Dwpt | Max. | Min. | Relative Humidity | Wind Chill (°C) | Heat Index (°C) | altimeter (cm) | sea level (mb) | 1 hr | 3 hr | 6 hr |
| 6 hour | |||||||||||||||||
| Temperature (ºC) | Pressure | Precipitation (cm) | |||||||||||||||